EW3957 Weather Reports


time (UTC)temp
F
wind
direction
speed
knots
gust
knots
rain 1hr
in
rain 24hr
in
rain mn
in
humidity
%
barometer
mb
20260505151550 58 320 0.9 4.3 0.00 0.00 0.00 49 1012.8
20260505124557 48 19 0.0 0.0 0.00 0.00 0.00 66 1011.6
20260505123015 48 20 0.0 0.0 0.00 0.00 0.00 65 1011.5
20260505121544 48 107 0.0 0.0 0.00 0.00 0.00 65 1011.3
20260505120115 48 107 0.0 0.0 0.00 0.00 0.00 66 1011.2
20260505114528 49 107 0.0 0.0 0.00 0.00 0.00 65 1011.2
20260505113058 50 107 0.0 0.0 0.00 0.00 0.00 64 1011.2
20260505111524 50 107 0.0 0.0 0.00 0.00 0.00 63 1011.1
20260505110104 50 107 0.0 0.0 0.00 0.00 0.00 63 1011.2
20260505101508 52 164 0.0 0.0 0.00 0.00 0.00 61 1011.0
20260505100022 52 209 0.0 0.0 0.00 0.00 0.00 60 1011.0
20260505094551 53 49 0.0 0.0 0.00 0.00 0.00 60 1010.8
20260505093017 53 319 0.0 4.3 0.00 0.00 0.00 61 1010.6
20260505091555 53 295 0.0 7.0 0.00 0.00 0.00 62 1010.6
20260505090002 53 36 0.0 2.6 0.00 0.00 0.00 63 1010.5
20260505084540 52 26 0.0 0.0 0.00 0.00 0.00 64 1010.4
20260505083059 53 26 0.0 0.0 0.00 0.00 0.00 63 1010.3
20260505081526 53 29 0.0 0.0 0.00 0.00 0.00 63 1010.3
20260505080105 53 355 0.0 0.0 0.00 0.00 0.00 63 1010.1
20260505074509 53 9 0.0 0.0 0.00 0.00 0.00 63 1009.9
20260505073043 54 63 0.0 0.0 0.00 0.00 0.00 64 1009.9
20260505071505 54 348 0.0 0.9 0.00 0.00 0.00 64 1009.7
20260505070034 53 44 0.0 0.0 0.00 0.00 0.00 67 1009.4
20260505064550 51 333 0.0 1.7 0.00 0.00 0.00 69 1009.2
20260505063014 50 292 0.0 0.0 0.00 0.00 0.00 73 1009.1
20260505061543 50 292 0.0 0.0 0.00 0.00 0.00 73 1009.1
20260505060109 50 292 0.0 0.0 0.00 0.00 0.00 76 1008.9
20260505054533 51 292 0.0 0.0 0.00 0.00 0.00 76 1008.8
20260505053100 51 292 0.0 0.0 0.00 0.00 0.00 76 1008.7
20260505051523 52 292 0.0 0.0 0.00 0.00 0.00 75 1008.5
20260505041605 55 292 0.0 0.0 0.00 0.00 0.00 65 1007.7
20260505040037 56 292 0.0 0.0 0.00 0.00 0.00 64 1007.5
20260505034545 57 292 0.0 0.0 0.00 0.00 0.00 62 1007.3
20260505033013 59 291 0.0 0.0 0.00 0.00 0.00 61 1007.1
20260505031544 61 291 0.0 0.0 0.00 0.00 0.00 56 1006.9
20260505030113 63 291 0.0 0.0 0.00 0.00 0.00 52 1006.9
20260505024524 65 292 0.0 0.0 0.00 0.00 0.00 47 1006.7
20260505023052 67 290 0.0 0.0 0.00 0.00 0.00 44 1006.6
20260505021519 69 355 0.0 3.5 0.00 0.00 0.00 42 1006.5
20260505020047 73 71 0.0 0.9 0.00 0.00 0.00 40 1006.4
20260505014501 74 57 0.0 4.3 0.00 0.00 0.00 38 1006.5
20260505013031 75 309 0.0 0.0 0.00 0.00 0.00 39 1006.5
20260505011608 76 333 0.0 3.5 0.00 0.00 0.00 34 1006.5
20260505010027 76 36 0.0 0.9 0.00 0.00 0.00 37 1006.6
20260505004544 76 336 0.0 0.9 0.00 0.00 0.00 37 1006.6
20260505003009 77 13 0.0 2.6 0.00 0.00 0.00 35 1006.6
20260505001538 78 192 0.0 2.6 0.00 0.00 0.00 34 1006.6
20260505000117 78 51 0.0 2.6 0.00 0.00 0.00 33 1006.6
20260504234523 78 144 0.0 0.9 0.00 0.00 0.00 34 1006.7
20260504233106 77 327 0.0 3.5 0.00 0.00 0.00 37 1006.8
20260504231516 78 57 0.0 2.6 0.00 0.00 0.00 32 1006.8
20260504230046 78 340 0.0 3.5 0.00 0.00 0.00 31 1006.9
20260504224614 78 5 0.0 0.0 0.00 0.00 0.00 33 1006.9
20260504223035 77 100 0.0 4.3 0.00 0.00 0.00 34 1007.0
20260504221555 77 44 0.0 4.3 0.00 0.00 0.00 36 1007.1
20260504220015 77 348 1.7 8.7 0.00 0.00 0.00 36 1007.2
20260504214537 77 190 0.9 4.3 0.00 0.00 0.00 37 1007.3
20260504213017 77 207 0.0 4.3 0.00 0.00 0.00 38 1007.4
20260504211535 76 307 0.0 3.5 0.00 0.00 0.00 39 1007.5
20260504204533 74 310 1.7 3.5 0.00 0.00 0.00 38 1007.8
20260504203102 75 205 0.9 5.2 0.00 0.00 0.00 40 1007.9
20260504201513 74 16 1.7 7.0 0.00 0.00 0.00 38 1007.9
20260504200043 75 343 0.9 5.2 0.00 0.00 0.00 39 1007.8
20260504194602 74 219 0.9 4.3 0.00 0.00 0.00 40 1007.9
20260504193027 73 172 0.0 7.8 0.00 0.00 0.00 40 1007.9
20260504191558 73 5 1.7 5.2 0.00 0.00 0.00 39 1008.1
20260504190010 73 68 1.7 4.3 0.00 0.00 0.00 40 1008.1
20260504184539 72 194 0.0 4.3 0.00 0.00 0.00 41 1008.1
20260504183004 72 333 1.7 4.3 0.00 0.00 0.00 44 1008.3
20260504181542 72 355 0.9 4.3 0.00 0.00 0.00 46 1008.3
20260504174518 70 341 2.6 8.7 0.00 0.00 0.00 42 1008.4
20260504173046 70 250 0.0 3.5 0.00 0.00 0.00 48 1008.5
20260504171511 69 245 0.0 3.5 0.00 0.00 0.00 43 1008.4